FW8325 Weather Reports


Display with metric or nautical units.
time (UTC)temp
F
wind
direction
speed
MPH
gust
MPH
rain 1hr
in
rain 24hr
in
rain mn
in
humidity
%
barometer
mb
20260510153617 50 58 0.0 0.0 0.00 0.00 0.00 67 1023.6
20260510152637 49 58 0.0 0.0 0.00 0.00 0.00 67 1023.6
20260510151617 48 58 0.0 0.0 0.00 0.00 0.00 70 1023.5
20260510150632 48 58 0.0 0.0 0.00 0.00 0.00 69 1023.6
20260510145633 49 60 0.0 0.0 0.00 0.00 0.00 69 1023.5
20260510144633 49 61 0.0 0.0 0.00 0.00 0.00 65 1023.4
20260510143617 49 61 0.0 0.0 0.00 0.00 0.00 62 1023.4
20260510142616 49 61 0.0 0.0 0.00 0.00 0.00 62 1023.4
20260510141634 49 61 0.0 0.0 0.00 0.00 0.00 62 1023.4
20260510140649 49 59 0.0 0.0 0.00 0.00 0.00 61 1023.5
20260510135625 49 59 0.0 0.0 0.00 0.00 0.00 63 1023.4
20260510134624 48 30 0.0 0.0 0.00 0.00 0.00 62 1023.4
20260510133628 47 30 0.0 0.0 0.00 0.00 0.00 64 1023.3
20260510132626 44 274 0.0 0.0 0.00 0.00 0.00 61 1023.2
20260510131626 43 274 0.0 0.0 0.00 0.00 0.00 63 1023.2
20260510130646 42 274 0.0 0.0 0.00 0.00 0.00 64 1023.0
20260510125623 41 281 0.0 0.0 0.00 0.00 0.00 64 1023.0
20260510124619 40 276 0.0 0.0 0.00 0.00 0.00 68 1023.0
20260510123621 39 271 0.0 0.0 0.00 0.00 0.00 70 1022.9
20260510122620 40 277 0.0 0.0 0.00 0.00 0.00 67 1022.9
20260510121619 39 271 0.0 0.0 0.00 0.00 0.00 68 1022.8
20260510120635 39 269 0.0 0.0 0.00 0.00 0.00 67 1022.8
20260510115631 40 273 0.0 0.0 0.00 0.00 0.00 67 1022.8
20260510114632 40 278 0.0 0.0 0.00 0.00 0.00 65 1022.8
20260510113630 40 278 0.0 0.0 0.00 0.00 0.00 66 1022.6
20260510112650 41 259 0.0 0.0 0.00 0.00 0.00 69 1022.6
20260510111627 40 224 0.0 0.0 0.00 0.00 0.00 71 1022.6
20260510110627 40 225 0.0 0.0 0.00 0.00 0.00 66 1022.5
20260510105633 40 226 0.0 0.0 0.00 0.00 0.00 67 1022.4
20260510104632 40 279 0.0 0.0 0.00 0.00 0.00 64 1022.3
20260510103650 40 276 0.0 0.0 0.00 0.00 0.00 67 1022.4
20260510102646 40 275 0.0 0.0 0.00 0.00 0.00 66 1022.3
20260510101625 41 275 0.0 0.0 0.00 0.00 0.00 67 1022.2
20260510100627 40 285 0.0 0.0 0.00 0.00 0.00 65 1022.3
20260510095648 41 272 0.0 0.0 0.00 0.00 0.00 66 1022.2
20260510094626 42 270 0.0 0.0 0.00 0.00 0.00 63 1022.1
20260510093624 42 271 0.0 0.0 0.00 0.00 0.00 65 1022.0
20260510092623 41 271 0.0 0.0 0.00 0.00 0.00 64 1021.9
20260510091625 42 271 0.0 0.0 0.00 0.00 0.00 62 1021.8
20260510090625 43 274 0.0 0.0 0.00 0.00 0.00 62 1021.7
20260510085621 43 275 0.0 0.0 0.00 0.00 0.00 61 1021.6
20260510084622 43 269 0.0 0.0 0.00 0.00 0.00 60 1021.6
20260510083622 44 281 0.0 0.0 0.00 0.00 0.00 57 1021.5
20260510082625 44 273 0.0 0.0 0.00 0.00 0.00 59 1021.5
20260510081620 43 279 0.0 0.0 0.00 0.00 0.00 59 1021.5
20260510080619 44 300 0.0 0.0 0.00 0.00 0.00 58 1021.5
20260510075618 44 284 0.0 0.0 0.00 0.00 0.00 54 1021.5
20260510074618 44 286 0.0 0.0 0.00 0.00 0.00 56 1021.6
20260510073617 43 269 0.0 0.0 0.00 0.00 0.00 61 1021.5
20260510072635 43 230 0.0 0.0 0.00 0.00 0.00 63 1021.6
20260510071632 44 230 0.0 0.0 0.00 0.00 0.00 60 1021.6
20260510070632 44 230 0.0 0.0 0.00 0.00 0.00 61 1021.5
20260510065618 45 230 0.0 0.0 0.00 0.00 0.00 58 1021.5
20260510064616 45 230 0.0 0.0 0.00 0.00 0.00 59 1021.4
20260510063655 46 186 0.0 0.0 0.00 0.00 0.00 56 1021.3
20260510062631 48 119 0.0 0.0 0.00 0.00 0.00 48 1021.3
20260510061631 48 119 0.0 0.0 0.00 0.00 0.00 47 1021.3
20260510060621 48 209 0.0 0.0 0.00 0.00 0.00 47 1021.2
20260510055625 47 213 0.0 0.0 0.00 0.00 0.00 48 1021.1
20260510054623 47 213 0.0 0.0 0.00 0.00 0.00 53 1021.1
20260510053621 47 196 0.0 0.0 0.00 0.00 0.00 49 1021.0
20260510052618 47 196 0.0 0.0 0.00 0.00 0.00 51 1020.9
20260510051616 47 219 0.0 0.0 0.00 0.00 0.00 53 1020.9
20260510050621 48 279 0.0 0.0 0.00 0.00 0.00 51 1020.8
20260510045620 49 271 0.0 0.0 0.00 0.00 0.00 48 1020.7
20260510044638 50 267 0.0 0.0 0.00 0.00 0.00 45 1020.7
20260510043655 51 194 0.0 0.0 0.00 0.00 0.00 46 1020.6
20260510042634 51 184 0.0 1.0 0.00 0.00 0.00 51 1020.5
20260510041619 51 246 0.0 2.0 0.00 0.00 0.00 41 1020.4
20260510040617 52 250 0.0 0.0 0.00 0.00 0.00 42 1020.2
20260510035616 52 273 0.0 0.0 0.00 0.00 0.00 44 1020.2
20260510034635 52 255 0.0 0.0 0.00 0.00 0.00 43 1020.0
20260510033631 52 271 0.0 0.0 0.00 0.00 0.00 40 1019.8
20260510032634 52 254 0.0 0.0 0.00 0.00 0.00 41 1019.5
20260510031633 53 259 0.0 0.0 0.00 0.00 0.00 40 1019.4
20260510030634 53 281 0.0 0.0 0.00 0.00 0.00 40 1019.3
20260510025632 54 277 0.0 0.0 0.00 0.00 0.00 38 1019.1
20260510024630 54 295 0.0 0.0 0.00 0.00 0.00 41 1019.0
20260510023635 54 288 0.0 0.0 0.00 0.00 0.00 40 1018.8
20260510022634 55 275 0.0 0.0 0.00 0.00 0.00 37 1018.6
20260510021633 58 270 0.0 0.0 0.00 0.00 0.00 33 1018.5
20260510020633 60 302 0.0 0.0 0.00 0.00 0.00 31 1018.4
20260510015618 61 302 0.0 0.0 0.00 0.00 0.00 27 1018.4
20260510014638 62 290 0.0 1.0 0.00 0.00 0.00 25 1018.2
20260510013616 62 304 0.0 7.0 0.00 0.00 0.00 25 1018.1
20260510012616 63 312 0.0 3.0 0.00 0.00 0.00 23 1018.0
20260510011634 63 290 0.0 3.0 0.00 0.00 0.00 23 1017.9
20260510010620 63 319 1.0 6.0 0.00 0.00 0.00 22 1017.8
20260510005639 63 327 1.0 9.0 0.00 0.00 0.00 27 1017.7
20260510004617 63 286 3.0 14.0 0.00 0.00 0.00 24 1017.7
20260510003654 63 291 2.0 14.0 0.00 0.00 0.00 22 1017.7
20260510002630 63 327 2.0 15.0 0.00 0.00 0.00 22 1017.6
20260510001626 64 355 4.0 17.0 0.00 0.00 0.00 22 1017.6
20260510000622 64 294 3.0 16.0 0.00 0.00 0.00 24 1017.5
20260509235621 64 303 3.0 11.0 0.00 0.00 0.00 23 1017.4
20260509234620 64 311 0.0 9.0 0.00 0.00 0.00 24 1017.3
20260509233620 64 292 2.0 11.0 0.00 0.00 0.00 24 1017.3
20260509232618 64 290 6.0 15.0 0.00 0.00 0.00 24 1017.2
20260509231621 64 273 6.0 25.0 0.00 0.00 0.00 25 1017.2
20260509230619 64 298 5.0 25.0 0.00 0.00 0.00 23 1017.2
20260509225618 64 315 6.0 18.0 0.00 0.00 0.00 27 1017.3
20260509224617 64 276 6.0 17.0 0.00 0.00 0.00 25 1017.2
20260509223620 65 275 3.0 12.0 0.00 0.00 0.00 25 1017.2
20260509222619 64 314 2.0 19.0 0.00 0.00 0.00 23 1017.2
20260509221618 64 307 5.0 16.0 0.00 0.00 0.00 24 1017.3
20260509220620 64 321 3.0 14.0 0.00 0.00 0.00 26 1017.5
20260509215618 63 290 6.0 14.0 0.00 0.00 0.00 25 1017.7
20260509214621 64 235 5.0 14.0 0.00 0.00 0.00 26 1017.5
20260509213620 64 311 2.0 12.0 0.00 0.00 0.00 24 1017.6
20260509212620 64 322 1.0 12.0 0.00 0.00 0.00 25 1017.7
20260509211617 63 278 0.0 3.0 0.00 0.00 0.00 27 1017.8
20260509210655 63 307 4.0 11.0 0.00 0.00 0.00 27 1018.1
20260509205618 62 274 4.0 19.0 0.00 0.00 0.00 27 1017.9
20260509204617 63 249 6.0 12.0 0.00 0.00 0.00 28 1017.8
20260509203616 63 252 2.0 17.0 0.00 0.00 0.00 30 1017.9
20260509202617 62 305 5.0 16.0 0.00 0.00 0.00 27 1018.0
20260509201617 62 235 4.0 12.0 0.00 0.00 0.00 26 1017.9
20260509200620 59 211 0.0 7.0 0.00 0.00 0.00 33 1017.9
20260509195638 57 81 3.0 10.0 0.00 0.00 0.00 40 1017.7
20260509194635 56 38 0.0 2.0 0.00 0.00 0.00 49 1017.8
20260509193635 56 68 0.0 0.0 0.00 0.00 0.00 46 1017.7
20260509192653 55 71 0.0 0.0 0.00 0.00 0.00 60 1017.7
20260509191634 55 84 0.0 0.0 0.00 0.00 0.00 56 1017.7
20260509190632 56 71 0.0 0.0 0.00 0.00 0.00 59 1017.7
20260509185630 55 71 0.0 0.0 0.00 0.00 0.00 52 1017.6
20260509184628 55 79 0.0 3.0 0.00 0.00 0.00 51 1017.7
20260509183626 54 73 0.0 2.0 0.00 0.00 0.00 56 1017.7
20260509182645 54 67 0.0 2.0 0.00 0.00 0.00 53 1017.7
20260509181627 54 76 0.0 0.0 0.00 0.00 0.00 61 1017.9
20260509180618 55 92 0.0 0.0 0.00 0.00 0.00 53 1017.8
20260509175657 55 83 0.0 0.0 0.00 0.00 0.00 50 1017.8
20260509174634 54 68 0.0 0.0 0.00 0.00 0.00 50 1018.0
20260509173633 54 85 0.0 0.0 0.00 0.00 0.00 55 1018.0
20260509172617 54 71 0.0 0.0 0.00 0.00 0.00 53 1018.0
20260509171657 54 84 0.0 0.0 0.00 0.00 0.00 52 1017.9
20260509170635 53 84 0.0 0.0 0.00 0.00 0.00 52 1017.9
20260509165616 54 75 0.0 0.0 0.00 0.00 0.00 52 1018.0
20260509164635 54 74 0.0 0.0 0.00 0.00 0.00 51 1018.0
20260509163637 55 53 0.0 0.0 0.00 0.00 0.00 51 1018.0
20260509162638 56 50 0.0 0.0 0.00 0.00 0.00 50 1018.0
20260509161636 55 50 0.0 0.0 0.00 0.00 0.00 52 1018.0
20260509160653 55 74 0.0 0.0 0.00 0.00 0.00 47 1018.0
20260509155632 56 74 0.0 0.0 0.00 0.00 0.00 48 1018.0
20260509154629 57 74 0.0 0.0 0.00 0.00 0.00 49 1018.2